GEC2742 EDDM-SAEZ

Flight info

Callsign GEC2742
Flight time N/A
Altitude 26000
Route ALG2N ALG Y109 UMTEX/N0474F270 Y100 TRA DCT LUTIX DCT BENOT DCT NEMOS DCT NINTU UN869 REPSI DCT LERGA DCT MINSO DCT NARAK DCT AGN DCT LATEK N995 PPN N976 ARDID DCT BUSEN DCT NELSO/N0499F290 N741 NORED/N0499F300 N741 EDUMO UN741 JOBER/N0504F320 UN741 DEVIR/N0494F340 UN741 PAPIX PAPIX6A
Aircraft B77L/H-SDE1E2E3FGHIJ2J3J4J5M1RWXY/LB1D1

Departure

Time 2026-05-06 05:21
Airport Munich Airport (EDDM)

Arrival

Time N/A
Airport Ezeiza International Airport - Ministro Pistarini (SAEZ)
Time Latitude Longitude Altitude Speed Heading
2026-05-06 05:03 48.35642 11.79297 1500 ft 0 kts 263°
2026-05-06 05:11 48.35642 11.79299 1500 ft 1 kts 263°
2026-05-06 05:11 48.35644 11.79320 1500 ft 3 kts 263°
2026-05-06 05:12 48.35644 11.79349 1500 ft 3 kts 281°
2026-05-06 05:12 48.35637 11.79378 1500 ft 3 kts 302°
2026-05-06 05:12 48.35623 11.79401 1500 ft 3 kts 322°
2026-05-06 05:12 48.35605 11.79416 1500 ft 3 kts 341°
2026-05-06 05:13 48.35591 11.79421 1500 ft 0 kts 352°
2026-05-06 05:13 48.35601 11.79419 1500 ft 3 kts 353°
2026-05-06 05:13 48.35638 11.79413 1500 ft 7 kts 353°
2026-05-06 05:14 48.35700 11.79402 1500 ft 10 kts 353°
2026-05-06 05:14 48.35765 11.79383 1500 ft 7 kts 348°
2026-05-06 05:14 48.35820 11.79369 1500 ft 9 kts 353°
2026-05-06 05:14 48.35884 11.79354 1500 ft 9 kts 347°
2026-05-06 05:15 48.35938 11.79335 1500 ft 8 kts 349°
2026-05-06 05:15 48.36012 11.79318 1500 ft 10 kts 353°
2026-05-06 05:15 48.36054 11.79366 1500 ft 11 kts 82°
2026-05-06 05:15 48.36061 11.79541 1500 ft 23 kts 85°
2026-05-06 05:16 48.36081 11.79841 1500 ft 34 kts 84°
2026-05-06 05:16 48.36111 11.80205 1500 ft 33 kts 83°
2026-05-06 05:16 48.36138 11.80555 1500 ft 34 kts 83°
2026-05-06 05:16 48.36163 11.80884 1500 ft 33 kts 83°
2026-05-06 05:17 48.36191 11.81233 1500 ft 31 kts 84°
2026-05-06 05:17 48.36209 11.81515 1500 ft 24 kts 83°
2026-05-06 05:17 48.36230 11.81767 1500 ft 24 kts 83°
2026-05-06 05:17 48.36246 11.81974 1500 ft 16 kts 83°
2026-05-06 05:18 48.36280 11.82076 1500 ft 9 kts 35°
2026-05-06 05:18 48.36337 11.82103 1500 ft 10 kts 356°
2026-05-06 05:18 48.36433 11.82092 1500 ft 18 kts 354°
2026-05-06 05:18 48.36570 11.82068 1500 ft 18 kts 358°
2026-05-06 05:19 48.36665 11.82031 1500 ft 12 kts 314°
2026-05-06 05:19 48.36681 11.81932 1500 ft 7 kts 261°
2026-05-06 05:19 48.36662 11.81747 1500 ft 35 kts 261°
2026-05-06 05:19 48.36616 11.81169 1500 ft 76 kts 264°
2026-05-06 05:20 48.36540 11.80193 1500 ft 114 kts 263°
2026-05-06 05:20 48.36432 11.78818 1502 ft 150 kts 263°
2026-05-06 05:20 48.36295 11.77116 1516 ft 173 kts 263°
2026-05-06 05:20 48.36183 11.75250 1609 ft 191 kts 264°
2026-05-06 05:21 48.36031 11.73236 2020 ft 192 kts 263°
2026-05-06 05:21 48.35836 11.71207 2324 ft 200 kts 262°
2026-05-06 05:21 48.35657 11.69129 2716 ft 202 kts 263°
2026-05-06 05:21 48.35496 11.66968 2962 ft 212 kts 263°
2026-05-06 05:22 48.35349 11.64771 3327 ft 212 kts 264°
2026-05-06 05:22 48.35195 11.62497 3432 ft 225 kts 264°
2026-05-06 05:22 48.35029 11.60139 3635 ft 234 kts 264°
2026-05-06 05:22 48.34847 11.57642 3754 ft 246 kts 264°
2026-05-06 05:23 48.34654 11.55021 3860 ft 256 kts 263°
2026-05-06 05:23 48.34454 11.52360 3871 ft 257 kts 262°
2026-05-06 05:23 48.33623 11.47271 3785 ft 246 kts 237°
2026-05-06 05:24 48.32823 11.46085 3775 ft 240 kts 219°
2026-05-06 05:24 48.31291 11.45280 3769 ft 233 kts 189°
2026-05-06 05:24 48.29736 11.45762 3767 ft 229 kts 160°
2026-05-06 05:24 48.28584 11.47353 3771 ft 230 kts 129°
2026-05-06 05:25 48.28119 11.49647 3780 ft 232 kts 97°